Find Starlink 36811

NORAD ID: 67808 Int'l Des: 2026-032 Owner: SPXS Country: US Constellation: starlink operational
LEOCIRCULARRETROGRADE

Aktuelle Ansicht

3D-Globus wird geladen...

Über Starlink 36811

Beschreibung wird geladen...

Nächste Überflüge

Passes for default location (London). Set your location on the main map for personalized predictions.

Höhenverlauf

Loading altitude history...

Zweizeiliger Elementsatz

1 67808U 26032M 26146.08645833 .00024934 00000-0 77195-3 0 9992
2 67808 97.2851 334.1936 0001756 89.0682 271.0762 15.33450990 16825
Epoch: 26. Mai 2026 • Age: 13 hours

Aktueller Status

Höhe 471.1 km
Geschwindigkeit 7.63 km/s
Subsatellitenpunkt -11.82°S, 37.45°E
Startdatum 15. Feb. 2026
Alter 0.2 years
Typ internet

Technische Details

Klassifizierung Payload
Masse 575.00 kg
Trockenmasse 530.00 kg
Gesamtmasse 575.00 kg
Länge 0.30 m
Durchmesser 4.10 m
Spannweite 29.00 m
Form Box + pan
Hersteller SPXS
Bus-Typ Starlink V2MO
Phasenstatus In Orbit
Besitzer/Staat SPXS/US

Most Searched